DW2537 Weather Reports


time (UTC)temp
C
wind
direction
speed
KPH
gust
KPH
rain 1hr
cm
rain 24hr
cm
rain mn
cm
humidity
%
barometer
mb
20260507115516 11 182 0.0 3.2 0.00 0.56 0.10 86 1012.5
20260507115015 11 152 0.0 3.2 0.00 0.56 0.10 85 1012.4
20260507114537 11 0 0.0 3.2 0.00 0.56 0.10 90 1012.2
20260507114019 11 0 0.0 3.2 0.00 0.56 0.10 89 1012.3
20260507113518 11 0 0.0 3.2 0.00 0.56 0.10 89 1012.4
20260507113034 10 0 0.0 1.6 0.00 0.56 0.10 86 1012.4
20260507112521 10 0 0.0 3.2 0.00 0.56 0.10 91 1012.2
20260507112019 10 0 0.0 3.2 0.00 0.56 0.10 87 1012.3
20260507111539 10 0 0.0 3.2 0.00 0.56 0.10 89 1012.5
20260507111018 10 0 0.0 3.2 0.00 0.56 0.10 85 1012.4
20260507110518 10 159 0.0 3.2 0.00 0.56 0.10 86 1012.3
20260507110050 10 159 0.0 3.2 0.00 0.56 0.10 87 1012.2
20260507105518 10 0 0.0 3.2 0.00 0.56 0.10 89 1012.2
20260507105018 10 0 0.0 1.6 0.00 0.56 0.10 89 1012.2
20260507104539 10 0 0.0 3.2 0.00 0.56 0.10 90 1012.0
20260507104019 11 0 0.0 3.2 0.00 0.56 0.10 90 1011.9
20260507103522 11 0 0.0 3.2 0.00 0.56 0.10 92 1011.9
20260507103036 11 0 0.0 3.2 0.00 0.56 0.10 91 1012.0
20260507102519 11 0 0.0 3.2 0.00 0.56 0.10 93 1011.9
20260507102019 11 151 0.0 3.2 0.00 0.56 0.10 92 1011.8
20260507101541 11 0 0.0 3.2 0.00 0.56 0.10 93 1011.8
20260507101023 11 163 0.0 3.2 0.00 0.56 0.10 94 1011.8
20260507100518 11 121 0.0 3.2 0.00 0.56 0.10 93 1011.6
20260507100035 11 0 0.0 3.2 0.00 0.56 0.10 93 1011.8
20260507095519 11 0 0.0 3.2 0.00 0.56 0.10 94 1011.8
20260507095019 11 0 0.0 3.2 0.00 0.56 0.10 94 1011.9
20260507094540 11 0 0.0 3.2 0.00 0.56 0.10 94 1011.7
20260507094018 11 0 0.0 3.2 0.00 0.56 0.10 94 1011.6
20260507093518 11 0 0.0 3.2 0.00 0.56 0.10 94 1011.5
20260507093039 11 0 0.0 3.2 0.00 0.56 0.10 94 1011.5
20260507092520 11 0 0.0 1.6 0.00 0.56 0.10 94 1011.6
20260507092019 11 0 0.0 0.0 0.00 0.56 0.10 94 1012.0
20260507091539 11 0 0.0 3.2 0.00 0.56 0.10 94 1012.0
20260507091019 11 0 0.0 3.2 0.00 0.56 0.10 93 1011.8
20260507090519 11 0 0.0 3.2 0.00 0.56 0.10 93 1011.8
20260507090040 11 0 0.0 3.2 0.00 0.56 0.10 93 1011.5
20260507085519 11 0 0.0 3.2 0.00 0.56 0.10 93 1011.4
20260507085019 11 0 0.0 3.2 0.00 0.56 0.10 92 1011.3
20260507084542 11 0 0.0 0.0 0.00 0.56 0.10 93 1011.3
20260507084016 11 0 0.0 3.2 0.00 0.56 0.10 93 1011.2
20260507083518 11 0 0.0 3.2 0.03 0.56 0.10 92 1011.4
20260507083036 11 123 0.0 3.2 0.03 0.56 0.10 92 1011.3
20260507082519 11 0 0.0 3.2 0.03 0.56 0.10 92 1011.2
20260507082021 11 0 0.0 3.2 0.03 0.56 0.10 91 1011.0
20260507081538 11 83 0.0 3.2 0.03 0.56 0.10 91 1010.9
20260507081015 11 45 0.0 3.2 0.03 0.56 0.10 90 1010.8
20260507080521 11 0 0.0 4.8 0.03 0.56 0.10 90 1010.8
20260507080037 11 165 0.0 8.0 0.03 0.56 0.10 89 1010.8
20260507075519 11 132 0.0 8.0 0.03 0.56 0.10 88 1010.6
20260507075019 12 149 1.6 3.2 0.03 0.56 0.10 87 1010.8
20260507074542 12 38 0.0 3.2 0.03 0.56 0.10 92 1010.6
20260507074019 12 159 0.0 3.2 0.03 0.56 0.10 91 1010.3
20260507073519 12 349 0.0 3.2 0.00 0.53 0.08 91 1010.4
20260507073041 12 93 0.0 3.2 0.00 0.53 0.08 92 1010.4
20260507072519 12 0 0.0 3.2 0.00 0.53 0.08 92 1010.5
20260507072018 12 0 0.0 3.2 0.00 0.53 0.08 92 1010.4
20260507071538 12 258 0.0 3.2 0.00 0.53 0.08 93 1010.5
20260507071020 12 0 0.0 3.2 0.00 0.53 0.08 89 1010.3
20260507070519 12 126 0.0 3.2 0.00 0.53 0.08 93 1010.3
20260507070053 12 19 0.0 3.2 0.00 0.53 0.08 93 1010.1
20260507065519 12 78 0.0 3.2 0.00 0.53 0.08 93 1010.2
20260507065019 12 127 0.0 4.8 0.00 0.53 0.08 93 1010.3
20260507064539 12 0 0.0 4.8 0.00 0.53 0.08 93 1010.3
20260507064020 12 36 0.0 3.2 0.00 0.53 0.08 93 1010.3
20260507063517 13 33 0.0 3.2 0.03 0.53 0.08 93 1010.2
20260507063039 13 33 0.0 3.2 0.03 0.53 0.08 93 1010.4
20260507062519 13 53 0.0 3.2 0.03 0.53 0.08 93 1009.9
20260507062019 13 0 0.0 3.2 0.03 0.53 0.08 93 1010.0
20260507061540 13 122 0.0 3.2 0.05 0.53 0.08 93 1010.0
20260507061020 13 32 0.0 3.2 0.05 0.53 0.08 93 1010.2
20260507060518 13 286 0.0 3.2 0.05 0.53 0.08 93 1010.3
20260507060051 13 286 0.0 4.8 0.05 0.53 0.08 92 1010.3
20260507055520 13 282 0.0 4.8 0.08 0.53 0.08 92 1010.4
20260507055019 13 0 0.0 3.2 0.08 0.53 0.08 92 1010.5
20260507054538 13 318 0.0 3.2 0.08 0.53 0.08 91 1010.4
20260507054019 13 9 0.0 3.2 0.08 0.53 0.08 91 1010.2
20260507053516 13 0 0.0 3.2 0.05 0.51 0.05 90 1010.3
20260507053048 13 18 0.0 4.8 0.05 0.51 0.05 89 1010.1
20260507052521 14 336 0.0 4.8 0.05 0.51 0.05 87 1010.3
20260507052019 15 38 1.6 4.8 0.05 0.51 0.05 87 1010.5
20260507051539 15 304 0.0 3.2 0.03 0.48 0.03 85 1010.9
20260507051018 15 45 0.0 4.8 0.03 0.48 0.03 83 1010.6
20260507050519 15 56 0.0 8.0 0.03 0.48 0.03 83 1010.5
20260507050042 15 220 1.6 8.0 0.03 0.48 0.03 79 1010.9
20260507045521 15 74 1.6 4.8 0.00 0.46 0.00 85 1010.3
20260507045019 16 13 0.0 3.2 0.00 0.46 0.00 83 1010.4
20260507044539 16 0 0.0 3.2 0.00 0.46 0.00 82 1010.2
20260507044018 16 0 0.0 3.2 0.00 0.46 0.00 83 1010.5
20260507043519 16 342 1.6 3.2 0.00 0.46 0.00 81 1010.5
20260507043038 16 71 0.0 3.2 0.00 0.46 0.00 84 1010.4
20260507042518 16 0 0.0 3.2 0.00 0.46 0.00 83 1010.3
20260507042019 16 0 0.0 3.2 0.00 0.46 0.00 84 1010.1
20260507041539 16 262 0.0 3.2 0.00 0.46 0.00 84 1010.1
20260507041018 16 213 0.0 3.2 0.00 0.46 0.00 85 1009.9
20260507040519 16 0 0.0 3.2 0.00 0.46 0.00 85 1009.8
20260507040035 16 213 0.0 4.8 0.00 0.46 0.00 82 1009.5
20260507035520 16 0 0.0 4.8 0.00 0.46 0.46 84 1009.5
20260507035019 16 178 0.0 11.3 0.00 0.46 0.46 85 1009.5
20260507034550 16 51 0.0 11.3 0.00 0.46 0.46 80 1009.9
20260507034019 16 0 0.0 3.2 0.00 0.46 0.46 85 1010.1
20260507033519 16 312 0.0 3.2 0.00 0.46 0.46 84 1010.1
20260507033043 16 0 0.0 3.2 0.00 0.46 0.46 82 1009.9
20260507032518 16 0 0.0 3.2 0.00 0.46 0.46 82 1009.8
20260507032018 17 0 0.0 6.4 0.00 0.46 0.46 85 1009.5
20260507031538 17 9 0.0 3.2 0.00 0.46 0.46 85 1009.6
20260507031018 17 161 0.0 4.8 0.00 0.46 0.46 85 1009.4
20260507030519 17 184 0.0 4.8 0.00 0.46 0.46 86 1009.4
20260507030040 18 0 0.0 3.2 0.00 0.46 0.46 86 1009.4
20260507025519 18 283 0.0 3.2 0.00 0.46 0.46 86 1009.3
20260507025019 18 0 0.0 3.2 0.00 0.46 0.46 85 1009.3
20260507024551 18 0 0.0 3.2 0.00 0.46 0.46 84 1009.2
20260507024020 18 331 0.0 6.4 0.00 0.46 0.46 85 1009.1
20260507023522 18 110 0.0 6.4 0.00 0.46 0.46 85 1009.1
20260507023032 18 110 0.0 6.4 0.00 0.46 0.46 83 1008.9
20260507022519 18 0 0.0 3.2 0.00 0.46 0.46 85 1008.8
20260507022021 18 0 0.0 3.2 0.00 0.46 0.46 85 1008.9
20260507021542 18 0 0.0 3.2 0.00 0.46 0.46 85 1008.8
20260507021019 18 197 0.0 3.2 0.00 0.46 0.46 85 1008.7
20260507020516 18 0 0.0 3.2 0.00 0.46 0.46 85 1008.7
20260507020032 18 231 0.0 3.2 0.00 0.46 0.46 85 1008.8
20260507015520 18 0 0.0 3.2 0.00 0.46 0.46 85 1008.7
20260507015018 18 0 0.0 3.2 0.00 0.46 0.46 84 1008.6
20260507014541 18 0 0.0 3.2 0.00 0.46 0.46 85 1008.7
20260507014020 18 0 0.0 0.0 0.00 0.46 0.46 84 1008.9
20260507013518 18 0 0.0 1.6 0.00 0.46 0.46 84 1009.0
20260507013038 18 0 0.0 1.6 0.00 0.46 0.46 84 1008.9
20260507012519 18 0 0.0 1.6 0.00 0.46 0.46 83 1009.0
20260507012019 18 0 0.0 3.2 0.00 0.46 0.46 83 1009.1
20260507011539 18 0 0.0 3.2 0.00 0.46 0.46 83 1009.1
20260507011017 18 0 0.0 3.2 0.00 0.46 0.46 83 1009.1
20260507010516 18 236 0.0 3.2 0.00 0.46 0.46 83 1009.1
20260507010032 18 0 0.0 3.2 0.00 0.46 0.46 83 1009.1
20260507005516 18 0 0.0 4.8 0.00 0.46 0.46 83 1009.0
20260507005016 18 0 0.0 4.8 0.00 0.46 0.46 82 1009.0
20260507004531 18 324 0.0 3.2 0.00 0.46 0.46 83 1008.8
20260507004015 18 227 0.0 3.2 0.00 0.46 0.46 82 1008.8
20260507003517 18 0 0.0 3.2 0.00 0.46 0.46 83 1008.7
20260507003030 19 227 0.0 3.2 0.00 0.46 0.46 82 1008.7
20260507002515 19 0 0.0 3.2 0.00 0.46 0.46 79 1008.7
20260507002016 19 227 0.0 3.2 0.00 0.46 0.46 82 1008.7
20260507001535 19 227 0.0 3.2 0.00 0.46 0.46 81 1008.8
20260507001016 19 226 0.0 3.2 0.00 0.46 0.46 81 1008.9
20260507000515 19 78 0.0 3.2 0.00 0.46 0.46 81 1008.9
20260507000031 19 119 0.0 3.2 0.00 0.46 0.46 81 1008.8
20260506235515 19 0 0.0 3.2 0.00 0.46 0.46 81 1008.8
20260506235016 19 155 0.0 3.2 0.00 0.46 0.46 80 1008.6
20260506234532 19 246 0.0 3.2 0.00 0.46 0.46 81 1008.6
20260506234016 19 227 0.0 3.2 0.00 0.46 0.46 80 1008.5
20260506233516 19 0 0.0 3.2 0.00 0.46 0.46 80 1008.6
20260506233031 20 0 0.0 3.2 0.00 0.46 0.46 80 1008.5
20260506232518 20 53 0.0 3.2 0.00 0.46 0.46 80 1008.3
20260506232016 20 36 0.0 3.2 0.00 0.46 0.46 76 1008.1
20260506231535 20 160 0.0 3.2 0.00 0.46 0.46 80 1008.1
20260506231018 20 146 0.0 3.2 0.00 0.46 0.46 79 1008.1
20260506230516 20 152 0.0 3.2 0.00 0.46 0.46 79 1008.2
20260506230031 20 313 0.0 4.8 0.00 0.46 0.46 79 1008.3
20260506225516 20 0 0.0 6.4 0.00 0.46 0.46 79 1008.2
20260506225015 20 200 1.6 6.4 0.00 0.46 0.46 76 1008.3
20260506224535 20 0 0.0 8.0 0.00 0.46 0.46 79 1008.2
20260506224016 20 244 1.6 8.0 0.00 0.46 0.46 74 1008.0
20260506223515 20 182 1.6 4.8 0.00 0.46 0.46 78 1008.2
20260506223043 20 246 1.6 8.0 0.00 0.46 0.46 75 1008.2
20260506222516 20 209 1.6 11.3 0.00 0.46 0.46 78 1008.1
20260506222016 20 212 1.6 11.3 0.00 0.46 0.46 77 1008.1
20260506221544 20 211 1.6 8.0 0.00 0.46 0.46 75 1008.2
20260506221016 20 163 1.6 8.0 0.00 0.46 0.46 77 1008.3
20260506220520 20 232 1.6 6.4 0.00 0.46 0.46 78 1008.2
20260506220050 20 211 3.2 6.4 0.00 0.46 0.46 77 1008.2
20260506215519 20 246 1.6 8.0 0.00 0.46 0.46 77 1008.2
20260506215018 20 13 1.6 14.5 0.00 0.46 0.46 77 1008.1
20260506214539 20 199 3.2 14.5 0.00 0.46 0.46 77 1008.3
20260506214019 20 249 3.2 12.9 0.00 0.46 0.46 74 1008.1
20260506213520 20 215 3.2 12.9 0.00 0.46 0.46 73 1008.1
20260506213039 20 246 1.6 12.9 0.00 0.46 0.46 75 1007.7
20260506212519 21 254 3.2 12.9 0.00 0.46 0.46 75 1007.9
20260506212018 21 197 1.6 12.9 0.00 0.46 0.46 75 1007.8
20260506211546 21 112 1.6 9.7 0.00 0.46 0.46 73 1007.8
20260506211019 21 30 1.6 12.9 0.00 0.46 0.46 75 1007.8
20260506210519 21 329 3.2 14.5 0.00 0.46 0.46 74 1007.7
20260506210035 21 190 3.2 14.5 0.00 0.46 0.46 74 1007.8
20260506205522 21 254 3.2 9.7 0.00 0.46 0.46 75 1007.7
20260506205019 21 201 3.2 9.7 0.00 0.46 0.46 72 1007.5
20260506204534 21 207 1.6 16.1 0.00 0.46 0.46 75 1007.5
20260506204022 21 144 3.2 16.1 0.00 0.46 0.46 74 1007.6
20260506203520 21 115 1.6 9.7 0.00 0.46 0.46 75 1007.6
20260506203040 21 188 1.6 9.7 0.00 0.46 0.46 75 1007.7
20260506202519 21 236 1.6 9.7 0.00 0.46 0.46 74 1007.6
20260506202020 21 332 1.6 16.1 0.00 0.46 0.46 74 1007.6
20260506201540 21 180 4.8 16.1 0.00 0.46 0.46 72 1007.7
20260506201020 21 192 3.2 12.9 0.00 0.46 0.46 75 1007.6
20260506200518 21 340 3.2 12.9 0.00 0.46 0.46 75 1007.6
20260506200038 21 208 1.6 12.9 0.00 0.46 0.46 75 1007.6
20260506195519 21 217 3.2 16.1 0.00 0.46 0.46 74 1007.7
20260506195020 21 9 3.2 16.1 0.00 0.46 0.46 75 1007.5
20260506194536 21 98 1.6 14.5 0.00 0.46 0.46 75 1007.6
20260506194018 21 319 3.2 16.1 0.00 0.46 0.46 73 1007.7
20260506193520 21 308 3.2 16.1 0.00 0.46 0.46 71 1007.8
20260506193038 21 182 4.8 16.1 0.00 0.46 0.46 71 1007.6
20260506192518 21 338 4.8 16.1 0.00 0.46 0.46 70 1007.9
20260506192020 21 163 3.2 16.1 0.00 0.46 0.46 71 1007.8
20260506191539 20 205 3.2 16.1 0.00 0.46 0.46 74 1008.0
20260506191020 20 74 4.8 16.1 0.00 0.46 0.46 76 1008.0
20260506190531 20 317 4.8 12.9 0.00 0.46 0.46 74 1008.0
20260506190030 20 86 3.2 12.9 0.00 0.46 0.46 79 1008.0
20260506185518 20 158 3.2 12.9 0.00 0.46 0.46 76 1008.1
20260506185016 20 229 1.6 6.4 0.00 0.46 0.46 75 1008.1
20260506184535 20 34 1.6 12.9 0.00 0.46 0.46 80 1008.2
20260506184016 20 151 1.6 12.9 0.00 0.46 0.46 77 1008.3
20260506183516 19 263 4.8 12.9 0.00 0.46 0.46 75 1008.3
20260506183034 19 197 4.8 16.1 0.00 0.46 0.46 79 1008.3
20260506182515 19 82 4.8 17.7 0.00 0.46 0.46 80 1008.3
20260506182015 19 219 4.8 17.7 0.00 0.46 0.46 80 1008.4
20260506181531 19 232 3.2 11.3 0.00 0.46 0.46 81 1008.5
20260506181016 19 171 4.8 12.9 0.00 0.46 0.46 80 1008.5
20260506180516 18 61 3.2 14.5 0.00 0.46 0.46 83 1008.5
20260506180037 18 207 4.8 16.1 0.00 0.46 0.46 82 1008.5
20260506175515 18 338 4.8 17.7 0.00 0.46 0.46 79 1008.7
20260506175016 18 39 6.4 17.7 0.00 0.46 0.46 81 1008.7
20260506174531 18 267 8.0 17.7 0.00 0.46 0.46 81 1008.7
20260506174015 18 347 3.2 12.9 0.00 0.46 0.46 81 1008.7
20260506173516 18 164 3.2 9.7 0.00 0.46 0.46 85 1008.8
20260506173035 17 235 1.6 19.3 0.00 0.46 0.46 86 1008.6
20260506172517 17 329 1.6 19.3 0.00 0.46 0.46 87 1008.8
20260506172020 17 132 4.8 17.7 0.00 0.46 0.46 86 1008.9
20260506171534 17 188 6.4 17.7 0.00 0.46 0.46 83 1008.8
20260506171016 17 321 3.2 14.5 0.00 0.46 0.46 88 1008.8
20260506170517 17 49 4.8 11.3 0.00 0.46 0.46 88 1008.7
20260506170032 17 267 3.2 11.3 0.00 0.46 0.46 88 1008.8
20260506165516 17 200 3.2 14.5 0.00 0.46 0.46 88 1008.8
20260506165020 17 232 4.8 14.5 0.00 0.46 0.46 89 1008.9
20260506164532 17 202 3.2 9.7 0.00 0.46 0.46 90 1009.0
20260506164018 17 260 3.2 16.1 0.00 0.46 0.46 90 1009.0
20260506163517 17 56 3.2 16.1 0.00 0.46 0.46 90 1009.1
20260506163031 17 204 1.6 11.3 0.03 0.46 0.46 91 1008.9
20260506162519 16 162 3.2 16.1 0.03 0.46 0.46 91 1008.8
20260506162019 16 108 3.2 17.7 0.03 0.46 0.46 91 1009.0
20260506161530 16 207 6.4 17.7 0.03 0.46 0.46 91 1008.9
20260506161016 16 18 1.6 6.4 0.05 0.46 0.46 92 1009.0
20260506160516 16 182 1.6 6.4 0.05 0.46 0.46 93 1009.0
20260506160035 16 198 1.6 14.5 0.05 0.46 0.46 93 1009.2
20260506155519 16 170 3.2 14.5 0.05 0.46 0.46 92 1009.2
20260506155019 16 195 3.2 14.5 0.08 0.46 0.46 92 1009.4
20260506154535 16 157 3.2 6.4 0.08 0.46 0.46 92 1009.4
20260506154019 16 333 1.6 11.3 0.13 0.46 0.46 92 1009.3
20260506153518 16 225 1.6 16.1 0.18 0.46 0.46 92 1009.1
20260506153043 16 334 1.6 16.1 0.18 0.43 0.43 92 1008.9
20260506152519 16 5 3.2 16.1 0.23 0.43 0.43 92 1009.1
20260506152019 16 207 1.6 8.0 0.23 0.43 0.43 93 1009.4
20260506151539 16 317 0.0 8.0 0.25 0.43 0.43 92 1009.7
20260506151019 16 221 0.0 9.7 0.25 0.41 0.41 93 1009.8
20260506150519 16 15 0.0 9.7 0.25 0.41 0.41 92 1010.0
20260506150048 16 204 0.0 11.3 0.30 0.41 0.41 92 1010.1
20260506145522 16 36 3.2 11.3 0.33 0.41 0.41 92 1010.1
20260506145019 16 298 1.6 11.3 0.30 0.38 0.38 92 1010.1
20260506144553 16 0 0.0 11.3 0.30 0.36 0.36 91 1010.2
20260506144019 16 150 0.0 8.0 0.30 0.33 0.33 90 1010.1
20260506143519 16 187 1.6 8.0 0.28 0.28 0.28 87 1010.2
20260506143049 16 202 1.6 3.2 0.23 0.23 0.23 90 1010.1
20260506142518 16 38 0.0 8.0 0.20 0.20 0.20 90 1010.1
20260506142018 16 261 1.6 8.0 0.20 0.20 0.20 90 1010.0
20260506141540 16 171 1.6 6.4 0.18 0.18 0.18 89 1010.2
20260506141021 16 22 1.6 9.7 0.15 0.15 0.15 88 1010.1
20260506140519 16 235 0.0 9.7 0.15 0.15 0.15 88 1010.1
20260506140055 16 291 0.0 6.4 0.10 0.10 0.10 87 1010.2
20260506135518 16 296 1.6 6.4 0.08 0.08 0.08 82 1010.2
20260506135018 17 5 0.0 6.4 0.08 0.08 0.08 85 1010.3
20260506134538 17 227 1.6 6.4 0.03 0.03 0.03 82 1010.6
20260506134019 17 232 0.0 6.4 0.03 0.03 0.03 83 1010.7
20260506133519 17 172 1.6 8.0 0.00 0.00 0.00 78 1010.7
20260506133034 17 164 1.6 8.0 0.00 0.00 0.00 81 1010.6
20260506132519 17 304 1.6 8.0 0.00 0.00 0.00 79 1010.4
20260506132021 17 66 1.6 8.0 0.00 0.00 0.00 75 1010.3
20260506131544 17 40 1.6 6.4 0.00 0.00 0.00 75 1010.0
20260506131017 17 10 0.0 11.3 0.00 0.00 0.00 76 1010.2
20260506130520 17 97 3.2 11.3 0.00 0.00 0.00 76 1010.0
20260506130059 17 5 1.6 12.9 0.00 0.00 0.00 76 1009.8
20260506125517 17 59 1.6 12.9 0.00 0.00 0.00 78 1009.8
20260506125016 17 197 1.6 8.0 0.00 0.00 0.00 79 1009.7
20260506124534 17 123 0.0 9.7 0.00 0.00 0.00 79 1009.8
20260506124016 17 229 1.6 9.7 0.00 0.00 0.00 77 1009.9
20260506123516 17 188 3.2 9.7 0.00 0.00 0.00 77 1009.9
20260506123038 17 0 0.0 6.4 0.00 0.00 0.00 77 1010.2
20260506122515 17 316 0.0 6.4 0.00 0.00 0.00 77 1010.1
20260506122016 17 88 3.2 6.4 0.00 0.00 0.00 76 1010.2
20260506121534 17 53 1.6 6.4 0.00 0.00 0.00 76 1010.3
20260506121016 17 257 1.6 6.4 0.00 0.00 0.00 73 1010.2
20260506120520 18 119 1.6 8.0 0.00 0.00 0.00 73 1010.3
20260506120034 18 182 1.6 11.3 0.00 0.00 0.00 72 1010.4